GFSNE_sfc_dewp_000.txt.gz
Dewpoint
65 64 63 63 61 62 61 60 57 52 50 53 55 57 57 58 59 59 60 61 61 62 62 63 63 66 68 69 69 69 71 71 72 72 73 73 74 74
63 63 64 64 62 61 59 60 58 56 54 54 55 56 57 57 59 60 59 60 60 61 61 62 63 63 65 67 68 68 68 69 70 71 71 72 72 73
64 64 64 64 62 61 60 59 58 57 55 56 56 57 58 59 59 59 59 59 58 60 60 60 61 61 62 65 66 66 67 67 68 69 70 71 71 71
63 63 63 62 62 62 59 60 60 59 58 57 58 57 58 60 60 59 58 56 58 57 59 59 60 61 61 62 64 64 64 64 66 67 68 69 70 70
63 63 62 61 61 61 60 60 60 60 59 57 57 58 57 58 58 59 59 58 57 57 58 58 58 60 60 60 62 62 60 61 62 63 64 66 68 69
63 63 62 61 61 61 61 61 61 60 59 58 57 57 57 58 57 55 54 55 55 54 56 56 58 59 60 60 60 62 59 58 59 60 61 62 64 66
63 63 61 61 62 62 62 61 60 59 59 57 56 56 56 56 55 55 54 54 55 54 54 54 55 57 58 60 63 64 62 59 58 58 59 59 60 62
61 61 59 59 60 60 61 62 62 60 59 58 56 56 57 57 56 54 53 52 52 54 54 53 55 55 57 57 59 63 63 61 59 58 58 58 59 59
60 60 58 59 60 58 58 59 60 60 61 61 58 57 57 57 57 55 55 53 53 53 53 52 54 53 57 57 58 59 62 61 60 59 58 58 58 58
59 59 59 59 57 58 58 58 57 57 57 55 57 57 57 58 58 57 55 55 55 55 54 53 54 53 56 57 58 60 61 60 59 58 57 57 56 55
59 57 56 58 56 55 56 56 55 55 55 55 55 55 55 55 56 56 54 54 52 51 53 53 53 53 55 56 57 60 60 59 58 57 57 56 54 54
57 57 55 54 53 52 54 54 54 53 52 52 53 53 54 55 55 57 57 53 52 51 53 53 53 55 55 57 57 62 67 58 56 55 56 55 53 59
55 54 54 52 50 49 50 54 53 53 52 52 50 50 51 52 53 55 56 55 52 53 55 55 55 57 56 58 63 63 67 66 62 58 53 52 51 59
54 52 53 48 48 49 51 50 49 50 52 51 49 49 51 51 52 53 55 55 56 55 56 59 57 57 57 57 59 64 65 64 63 62 60 54 51 54
50 49 48 46 46 49 50 49 49 50 49 48 46 48 50 52 53 53 54 54 55 55 58 59 59 59 59 61 64 62 63 62 63 61 59 57 57 59
46 46 49 50 49 48 48 47 48 48 47 46 45 48 49 50 50 52 52 53 52 53 57 58 60 60 59 59 63 64 63 62 62 61 60 60 59 61
45 50 51 48 46 44 42 43 44 43 43 43 44 45 47 46 46 50 51 51 51 51 54 57 59 60 60 60 62 64 63 62 63 62 61 60 60 61
46 48 46 43 42 40 39 37 38 38 38 39 39 42 40 43 44 47 49 49 49 51 54 55 56 57 59 57 56 57 63 63 62 62 63 62 61 62
45 43 41 39 37 36 34 33 33 35 38 36 39 36 36 40 43 45 46 48 49 50 53 55 55 54 55 54 55 52 53 62 63 62 63 63 62 62
40 39 36 32 32 33 33 31 32 34 34 34 34 35 35 36 38 41 45 45 47 51 53 54 54 54 53 53 54 54 49 57 60 63 63 66 64 59
35 33 32 33 34 35 32 29 30 33 33 32 32 33 34 35 36 39 41 42 46 50 50 51 53 54 55 56 53 54 57 52 55 58 59 63 63 64
36 36 37 37 37 32 27 27 31 32 31 31 32 32 33 34 34 36 38 40 44 47 50 51 53 53 52 52 51 51 52 55 56 54 54 54 60 63
39 39 38 35 28 26 29 31 30 30 30 31 31 32 33 33 34 34 35 36 38 44 46 48 50 52 51 51 50 50 50 51 53 54 54 54 54 53

GFSNE_sfc_dewp_003.txt.gz
Dewpoint
65 66 64 62 62 62 63 61 58 54 53 54 54 57 58 58 60 61 60 61 62 63 62 62 62 63 64 64 65 67 69 69 70 71 72 73 73 75
62 66 66 63 63 66 65 61 60 57 54 53 55 58 60 60 60 61 60 62 61 61 61 61 62 62 62 63 63 65 67 68 68 69 70 71 72 73
66 66 66 67 63 62 63 63 60 59 57 55 55 60 62 62 61 62 61 60 57 60 61 61 61 61 61 61 62 63 64 66 67 68 69 70 71 71
64 65 64 62 66 65 62 64 61 62 59 59 60 57 60 62 62 62 60 58 58 58 60 60 59 60 60 60 60 61 61 63 65 66 67 68 70 70
64 64 64 65 65 61 63 61 59 64 61 59 57 56 57 58 59 61 60 60 58 59 59 59 59 59 58 58 58 59 58 59 61 62 63 65 66 68
65 65 65 65 64 63 62 63 62 61 60 58 57 55 55 59 58 56 54 54 54 54 56 57 58 57 58 57 58 58 58 57 58 59 60 61 63 65
65 66 65 65 63 62 59 62 62 60 56 55 55 53 53 53 54 54 54 54 56 54 52 52 52 52 53 55 58 60 59 59 58 58 58 59 60 62
65 65 65 63 63 61 61 61 62 61 61 58 53 55 59 57 55 56 54 53 50 53 55 54 52 51 53 54 56 58 58 60 59 58 58 57 58 59
66 65 63 59 61 60 59 59 59 60 61 62 60 59 59 59 60 58 56 55 54 54 55 53 52 52 54 54 56 57 57 57 57 59 58 57 57 57
65 65 63 63 61 59 59 58 58 59 60 57 59 59 59 58 58 57 57 57 56 54 57 51 51 51 53 55 56 57 57 57 57 58 58 57 55 54
65 64 62 61 58 56 56 57 58 58 56 56 55 55 55 55 55 55 54 53 52 51 52 50 50 51 53 54 56 57 56 56 56 57 58 57 54 53
63 62 56 57 53 53 57 57 56 56 55 55 54 54 55 55 55 56 54 54 54 51 52 52 53 54 53 54 55 58 58 56 55 56 57 56 54 62
59 58 58 52 51 50 51 57 55 52 53 52 51 51 51 52 52 53 55 54 55 54 54 55 54 54 54 54 57 59 62 59 60 59 54 54 52 60
59 57 55 49 47 49 51 50 50 49 49 49 48 48 48 48 49 51 53 54 55 56 56 56 54 54 55 55 57 61 65 61 67 66 63 56 52 54
55 49 47 46 46 49 50 49 48 49 47 46 45 45 45 46 51 49 50 55 56 57 56 56 56 57 58 57 58 59 62 65 67 65 63 59 58 59
49 50 49 50 49 50 48 48 47 46 44 43 43 43 43 43 42 41 44 49 53 53 54 56 57 58 58 59 60 59 62 63 64 63 62 62 62 63
49 51 52 51 50 50 48 47 46 44 42 41 40 40 39 39 38 39 44 49 53 53 52 54 56 58 59 58 59 60 63 64 63 62 62 61 62 63
47 48 48 48 48 47 45 43 42 40 40 39 39 38 37 36 36 38 44 48 52 52 53 54 55 55 58 57 56 53 55 64 63 64 64 63 61 63
46 47 46 46 44 43 40 38 37 36 40 36 37 36 36 36 36 37 43 47 47 49 53 54 54 52 52 51 56 54 53 57 64 62 64 63 64 63
46 45 44 41 39 39 39 36 34 32 31 34 35 34 34 35 35 36 42 43 47 48 52 55 54 52 51 52 53 56 52 54 58 62 62 65 63 61
42 41 39 38 40 41 39 35 33 28 32 34 33 33 33 34 34 35 38 43 44 48 49 52 53 53 55 55 53 53 55 52 53 56 59 63 64 64
40 40 40 41 42 40 34 31 29 33 34 32 33 33 33 33 32 33 36 40 44 48 50 51 54 54 53 52 51 52 52 53 55 54 54 54 61 63
42 42 42 41 37 34 32 32 33 33 33 33 32 32 33 32 33 32 31 36 40 40 44 46 51 51 50 50 51 51 51 51 52 52 53 53 54 53

GFSNE_sfc_dewp_006.txt.gz
Dewpoint
62 63 61 56 55 55 56 58 56 52 49 52 52 57 56 56 60 60 61 62 62 62 62 62 62 62 62 62 63 63 63 65 67 69 70 71 73 74
56 61 63 58 58 57 57 56 56 55 52 51 51 55 58 58 61 61 61 64 63 63 62 61 62 62 62 62 63 63 63 63 64 66 68 69 70 72
61 63 64 66 60 56 55 55 54 54 53 53 53 57 61 62 61 61 60 60 58 62 62 62 61 61 61 61 61 61 62 62 63 64 66 67 68 70
61 63 63 60 64 65 59 62 59 60 56 60 59 56 61 61 61 62 60 56 57 59 61 60 60 59 59 59 60 60 60 60 60 62 63 65 67 68
62 63 63 63 64 60 61 58 55 56 57 54 55 55 55 55 58 63 61 61 56 59 60 59 59 59 59 58 58 57 57 57 57 58 60 61 64 66
63 63 63 63 63 63 61 62 62 59 59 55 55 53 58 59 58 56 53 51 51 51 56 56 57 58 60 58 57 57 56 55 55 56 57 58 60 63
63 63 64 64 63 63 58 62 63 58 55 54 52 51 52 54 58 53 51 52 55 54 51 50 48 51 53 55 56 59 58 57 56 56 56 56 57 59
64 65 66 66 65 63 62 62 61 61 59 54 53 53 59 59 56 53 53 52 51 54 54 49 52 52 52 52 55 57 56 55 56 56 56 56 56 57
66 66 65 63 64 63 62 61 61 60 60 61 60 59 61 60 59 60 58 55 53 51 55 53 53 51 52 49 54 57 56 56 55 55 56 56 56 56
66 65 65 64 65 63 63 60 60 60 61 59 60 59 59 59 58 57 57 57 56 55 58 53 51 49 52 53 55 55 55 54 54 54 55 55 55 54
66 65 65 65 61 57 59 59 59 59 57 57 56 55 54 54 55 54 52 52 52 53 54 52 49 50 52 53 55 56 55 54 54 54 55 54 54 53
64 65 59 61 54 54 58 58 57 57 57 56 56 56 56 55 56 57 55 55 54 52 53 51 51 53 52 53 54 55 55 55 53 53 53 54 53 58
60 65 63 54 52 51 52 56 56 56 54 54 51 48 47 50 49 55 57 52 49 47 50 55 57 54 53 53 54 55 57 57 58 58 52 52 52 56
65 58 56 49 48 50 51 51 51 49 50 49 47 44 45 46 47 48 54 54 51 54 58 62 57 54 52 52 53 57 60 61 63 62 61 55 52 53
59 51 48 47 47 47 51 50 49 50 49 47 44 44 45 46 50 51 52 56 57 57 56 61 58 55 55 54 54 58 57 59 62 68 66 60 58 58
51 51 52 51 50 51 51 50 50 50 47 45 45 45 45 44 43 42 39 38 45 49 57 58 58 56 54 56 58 58 59 58 63 66 66 66 65 62
54 53 51 51 50 51 51 50 49 47 45 44 44 43 41 40 38 37 36 39 47 51 51 52 57 57 56 56 55 56 55 56 63 64 64 63 64 66
48 49 47 48 48 48 48 46 45 44 43 42 41 40 38 37 36 35 36 42 48 50 50 50 59 54 53 55 56 56 55 55 56 63 63 62 61 64
47 47 47 47 47 46 44 41 41 41 46 40 39 38 36 35 35 34 36 41 45 47 50 50 58 53 49 49 55 54 54 54 55 56 64 63 63 63
46 46 46 46 45 43 42 41 40 39 36 35 35 35 34 34 33 34 35 40 44 48 50 51 53 53 50 50 51 54 51 53 54 55 60 65 66 60
45 43 43 42 42 43 43 42 40 35 31 34 34 33 33 32 33 33 33 40 44 46 47 47 51 53 56 54 51 51 54 51 52 54 55 58 63 63
44 42 42 43 43 44 41 38 34 31 33 32 32 33 32 32 30 30 30 32 41 43 46 47 51 52 52 51 50 51 51 52 52 53 53 54 51 56
45 43 43 43 43 40 36 33 29 30 32 32 31 31 32 30 31 30 28 28 31 37 42 45 47 49 50 50 49 50 50 50 50 50 52 52 54 54

GFSNE_sfc_dewp_009.txt.gz
Dewpoint
65 67 62 57 55 54 56 63 62 57 56 56 54 64 63 59 61 59 60 64 64 62 63 62 63 63 63 63 63 63 63 63 63 64 65 65 67 70
58 65 66 58 59 56 61 57 55 53 51 53 53 59 62 57 60 60 60 64 64 63 63 62 62 63 63 63 63 63 63 63 63 63 64 64 65 67
66 64 65 67 60 56 55 56 53 55 52 55 55 59 67 65 62 64 61 63 59 62 63 63 62 62 62 62 62 62 62 62 62 63 63 63 64 65
63 66 64 60 68 69 59 67 63 63 57 62 60 57 63 65 66 66 61 56 58 58 63 63 61 60 60 60 60 60 59 60 60 61 61 62 62 63
64 65 64 66 68 62 65 62 60 61 60 54 55 58 58 58 60 64 65 63 60 59 59 60 60 60 59 58 58 57 56 57 57 57 58 59 60 61
66 65 65 66 67 68 66 68 65 62 60 57 55 55 57 59 60 55 57 58 57 54 57 56 58 60 60 58 58 58 56 55 54 54 55 56 58 59
64 64 65 66 65 65 64 65 67 61 56 55 55 54 54 54 57 56 57 56 57 55 54 55 54 54 53 57 59 60 58 57 55 54 54 54 55 56
65 66 67 65 64 63 63 63 63 64 63 57 56 56 60 60 57 57 58 54 51 56 56 54 53 52 53 54 56 57 57 57 56 55 54 54 54 55
68 67 64 61 63 62 63 63 62 61 61 63 62 61 61 62 62 61 60 57 54 53 56 52 54 54 56 52 56 57 55 55 56 55 54 54 54 54
67 68 68 67 65 66 65 63 64 64 64 60 63 63 63 61 60 58 60 59 56 55 57 52 54 55 56 55 56 56 54 54 54 54 54 53 52 52
67 67 66 67 63 60 63 61 61 61 59 59 58 56 54 54 55 53 51 48 48 49 54 53 53 53 53 53 55 56 55 54 53 54 54 53 52 51
68 69 62 63 57 56 61 60 60 60 58 58 58 57 57 58 56 58 54 51 50 51 53 52 49 50 51 54 54 57 58 56 54 53 53 53 51 54
63 63 63 55 54 53 53 59 58 57 58 55 52 52 53 52 46 53 61 54 50 48 50 49 48 54 59 55 53 54 56 55 55 56 53 51 51 53
64 63 65 54 53 52 51 53 52 51 51 49 49 49 47 44 45 50 58 56 53 56 56 57 58 59 58 54 52 53 54 57 59 60 61 58 52 51
63 54 53 50 49 47 49 52 52 50 49 50 49 45 43 45 55 54 56 59 58 56 52 61 61 60 58 55 53 53 56 57 58 60 60 62 63 56
55 55 53 52 51 53 52 52 52 52 51 48 45 45 45 44 43 42 40 38 37 40 57 60 59 61 58 56 54 53 56 54 56 58 58 67 63 58
57 55 54 53 51 53 54 56 54 51 48 46 45 43 41 41 40 39 37 37 36 43 48 53 57 60 61 57 53 54 55 54 54 56 57 63 66 61
52 51 49 48 47 48 50 51 49 48 46 45 43 42 40 39 38 36 36 36 38 45 46 51 52 56 52 54 56 54 54 53 54 55 56 60 61 64
48 46 47 47 47 47 47 45 43 44 50 43 41 40 38 37 36 35 35 36 39 45 48 56 56 54 50 49 53 55 53 53 52 53 54 55 61 63
47 45 46 46 46 45 44 42 42 41 40 38 36 36 35 35 34 34 34 36 37 44 49 49 47 51 50 51 51 53 49 52 51 51 52 54 57 60
45 45 45 43 43 43 43 44 44 40 35 34 36 35 34 33 33 33 32 36 38 42 44 46 50 51 53 52 50 50 51 50 51 51 51 51 54 63
45 45 44 44 44 45 44 42 39 34 34 33 33 33 33 33 31 30 30 30 32 33 38 49 51 52 51 50 49 51 50 51 51 51 51 51 50 50
46 46 45 46 45 45 42 38 33 30 31 32 32 32 33 30 32 30 28 27 28 29 36 41 51 51 50 49 48 51 49 49 49 49 49 50 51 49

GFSNE_sfc_dewp_015.txt.gz
Dewpoint
61 62 61 60 61 61 58 57 54 52 54 56 56 61 60 59 62 61 58 64 65 65 64 63 64 64 65 64 64 64 64 64 64 64 63 62 62 62
64 64 62 62 62 61 60 58 59 55 54 57 56 57 58 60 62 61 58 65 65 65 64 62 62 63 64 64 64 64 64 64 64 64 64 64 64 62
63 62 64 62 61 60 62 60 58 57 55 55 57 58 59 57 58 61 62 62 61 64 64 63 62 62 63 63 64 64 63 63 63 64 64 64 64 64
63 62 61 62 62 61 63 62 62 61 58 56 59 58 58 60 61 62 61 60 61 63 64 63 62 62 62 62 62 62 61 61 61 62 62 63 63 64
64 63 63 62 61 63 64 63 62 62 61 60 58 59 59 59 57 58 59 59 62 64 62 61 61 60 60 60 59 59 58 58 58 59 59 59 60 62
64 64 63 62 62 64 63 63 63 62 61 60 59 59 59 58 60 59 57 58 58 60 61 61 61 61 61 60 59 59 57 55 55 55 56 56 57 58
64 65 64 65 65 64 64 63 64 63 61 59 57 55 55 56 56 57 58 58 58 58 58 57 56 55 55 58 61 62 60 58 56 55 55 54 54 55
64 66 64 66 65 65 65 64 64 63 60 58 56 56 55 57 58 58 58 56 55 57 56 53 52 51 51 53 57 58 57 57 56 56 55 54 54 54
65 65 65 63 64 63 63 62 63 62 61 59 57 56 56 58 58 57 56 56 56 56 53 52 53 53 53 55 57 56 56 56 56 55 55 54 53 53
66 66 65 64 64 65 64 63 62 63 62 62 60 59 60 60 60 59 57 55 54 55 55 52 53 53 52 53 57 57 56 56 55 55 54 53 51 51
65 66 65 65 62 60 63 63 63 62 62 60 61 61 59 58 59 56 53 52 51 51 52 52 51 51 52 49 47 53 53 54 54 54 54 53 51 51
63 65 62 63 60 59 63 62 60 59 59 59 58 58 56 55 56 55 53 52 51 51 53 52 49 46 43 44 47 52 52 53 53 52 52 52 51 53
63 63 63 59 58 57 57 61 61 55 54 52 53 53 53 53 55 55 56 55 53 53 54 50 47 47 47 48 52 53 53 53 54 55 53 51 51 53
62 63 62 57 54 55 57 56 51 51 50 51 52 51 51 50 50 51 54 57 57 53 51 52 51 50 51 51 49 51 51 54 54 54 55 54 52 52
62 59 54 53 54 55 55 53 52 50 50 51 51 51 48 48 49 47 47 46 45 43 45 47 52 52 52 51 52 51 52 53 53 55 54 54 53 53
56 55 56 54 54 53 51 51 50 50 51 52 52 50 50 45 44 46 44 42 39 38 40 44 50 55 53 52 53 53 52 51 52 53 52 52 53 53
55 54 53 52 51 51 52 52 51 51 53 54 53 48 43 43 44 43 42 38 38 41 40 44 51 53 56 55 51 51 52 52 51 51 51 50 51 52
55 55 53 54 54 54 53 53 54 55 54 51 46 45 43 44 41 41 41 40 41 40 41 40 49 49 50 50 53 50 51 52 52 52 51 49 48 49
55 55 52 51 51 52 54 53 51 54 49 46 43 38 38 38 40 40 38 40 39 38 38 41 47 47 47 46 48 52 52 51 51 48 49 49 47 47
51 50 49 49 48 47 46 46 46 44 42 38 35 36 36 39 38 37 37 38 36 37 37 42 45 47 48 48 48 49 49 49 48 48 47 46 46 49
48 48 50 47 47 48 48 47 43 41 37 35 35 38 41 38 36 35 37 40 39 36 38 36 35 51 49 49 46 46 47 48 47 48 47 45 44 45
50 48 47 47 47 47 47 44 42 40 39 39 42 39 38 36 34 35 36 34 35 36 38 35 40 49 47 45 44 45 45 45 46 47 47 46 44 41
50 49 49 47 47 47 46 42 39 37 35 38 35 34 35 35 37 35 33 35 35 34 33 32 36 47 45 45 45 43 43 44 44 42 43 45 45 44

GFSNE_sfc_dewp_021.txt.gz
Dewpoint
61 62 61 60 60 60 59 54 51 49 50 53 55 56 60 59 61 62 64 63 65 65 64 63 64 64 65 66 66 66 66 66 65 65 65 64 62 61
62 60 60 60 59 60 58 56 54 51 50 53 56 55 56 58 60 63 62 64 64 64 64 64 64 64 65 65 65 65 65 65 65 65 65 64 65 64
63 61 60 60 60 60 60 59 57 56 52 55 57 56 56 59 58 57 59 60 60 63 63 63 63 63 64 64 64 64 64 65 65 65 65 65 65 65
62 62 62 62 61 60 59 60 57 57 56 53 55 57 57 57 57 59 60 60 59 61 62 62 62 62 62 62 62 62 62 62 62 63 64 64 65 65
61 62 62 61 60 61 60 60 61 60 59 57 56 58 58 58 58 57 57 58 59 62 60 61 60 61 60 59 58 57 57 57 58 59 60 61 62 63
64 63 61 61 60 60 60 61 60 61 59 59 58 58 58 58 58 57 56 57 57 58 60 60 61 61 60 58 58 58 56 55 55 55 56 57 58 60
63 64 63 63 63 62 60 60 62 60 60 59 58 58 58 58 58 58 56 57 57 58 57 56 56 54 52 56 56 58 58 57 56 55 55 54 55 56
63 64 65 65 65 63 62 62 63 61 60 58 59 58 57 59 58 58 56 55 54 56 55 55 54 52 52 53 57 58 58 57 56 56 55 54 54 55
65 65 64 64 64 65 63 62 63 62 62 60 58 60 60 60 59 56 56 55 54 56 55 53 52 52 52 53 57 57 57 56 55 55 54 54 53 52
66 65 64 64 64 64 63 62 61 62 63 62 61 62 61 61 59 58 57 55 55 56 54 51 52 52 53 53 56 57 56 55 54 52 52 52 51 51
66 66 65 64 62 61 63 62 61 61 62 60 61 60 59 58 59 57 56 54 52 51 52 51 51 51 51 51 51 55 54 53 52 51 52 52 51 50
65 65 62 64 59 58 64 62 60 61 60 59 58 56 56 54 57 57 55 52 50 49 51 51 50 49 47 46 45 45 46 50 50 51 51 52 50 51
63 61 62 58 56 55 57 62 61 59 59 57 53 51 51 51 51 52 53 53 51 50 53 52 49 47 45 45 47 49 50 51 51 52 51 50 50 51
61 63 63 56 52 52 55 56 54 56 54 51 49 48 49 50 47 48 47 50 53 52 52 51 49 47 44 43 45 49 50 50 51 51 52 52 51 51
64 61 55 52 50 52 54 54 54 54 50 49 48 48 50 50 48 43 44 43 41 41 43 44 47 45 45 45 46 48 47 49 50 51 52 52 52 52
57 56 56 55 55 55 55 54 52 51 49 48 48 49 50 46 42 43 41 40 37 36 37 39 41 44 43 46 47 47 48 47 49 49 50 51 51 50
56 55 55 54 54 52 51 51 51 50 49 49 49 50 49 43 42 42 40 38 36 36 36 38 38 42 45 46 45 45 48 47 49 49 49 47 47 46
55 55 53 53 53 52 50 50 50 51 49 49 50 49 44 42 40 37 39 37 35 35 36 35 35 40 40 41 49 46 46 46 47 48 46 44 42 43
54 52 52 52 51 51 51 51 51 51 51 50 47 43 38 36 36 37 36 35 34 34 33 34 36 40 36 36 42 50 46 45 45 44 43 42 42 41
53 53 53 52 52 51 51 50 48 46 43 38 35 34 34 36 38 34 33 33 34 34 34 34 37 34 37 41 43 45 47 44 43 43 43 42 42 44
52 52 51 50 49 48 46 45 42 40 38 36 35 33 36 38 35 33 34 38 37 34 34 32 34 41 42 44 41 41 43 46 45 44 43 42 41 40
49 48 48 47 46 46 45 43 42 39 37 36 36 37 37 36 32 33 34 33 34 35 34 34 35 44 43 41 40 40 41 42 44 46 46 45 42 39
50 49 47 46 46 45 43 42 40 38 36 34 36 37 34 32 34 34 33 34 34 33 31 33 34 42 42 40 41 40 39 41 42 41 41 44 44 43

GFSNE_sfc_dewp_024.txt.gz
Dewpoint
64 64 63 62 62 61 59 59 58 54 55 57 58 60 63 62 62 64 66 66 65 65 64 64 64 64 65 66 66 66 66 67 67 66 66 66 64 62
63 64 64 62 62 62 61 60 58 58 55 57 58 60 60 61 62 64 64 64 65 64 64 64 64 64 65 65 65 65 66 66 66 66 66 66 65 65
65 63 63 64 61 61 61 60 59 57 57 58 59 60 61 62 62 62 61 63 62 63 63 63 63 64 64 64 64 64 64 65 65 65 66 66 66 66
65 64 63 62 63 63 61 63 61 61 59 60 59 60 61 62 62 63 62 60 62 61 62 62 62 62 61 62 62 62 61 61 61 62 63 64 65 65
65 65 64 64 63 62 63 62 62 61 63 60 60 60 61 61 62 62 62 62 60 62 61 60 60 61 60 59 57 57 56 56 57 58 59 60 61 62
66 65 64 64 63 63 63 64 64 64 63 62 61 62 60 61 61 60 59 60 59 59 61 60 60 60 59 58 57 58 57 55 55 55 55 56 57 59
66 66 65 65 65 63 62 64 65 63 64 63 62 61 60 61 61 60 58 59 60 60 60 60 59 58 58 57 57 59 57 56 55 55 54 54 55 56
65 66 66 65 65 63 62 62 64 63 64 63 62 62 61 62 61 60 59 58 57 60 59 58 58 58 59 57 57 58 58 57 57 56 55 54 53 54
66 66 65 66 65 66 63 62 62 62 63 64 63 60 61 64 62 59 58 59 58 59 59 57 59 57 58 54 57 57 57 57 56 55 54 53 52 52
67 66 66 66 66 65 65 65 65 65 64 64 65 63 63 64 62 62 61 60 60 59 59 57 57 55 56 56 57 57 56 56 55 54 53 51 50 50
67 67 67 66 62 61 66 65 65 64 61 61 60 60 60 60 62 61 59 58 57 55 56 55 55 54 54 53 54 55 54 53 52 52 52 51 50 49
67 67 62 65 59 58 66 66 65 63 63 63 62 60 59 57 59 61 58 54 54 52 55 53 53 53 46 51 50 50 50 50 50 50 51 51 50 53
67 66 66 59 56 54 59 66 63 63 62 62 60 56 54 54 53 55 58 55 54 53 55 54 53 51 49 48 48 49 49 49 51 53 51 50 49 51
66 66 65 56 53 53 56 58 54 58 60 57 55 52 51 53 51 52 54 55 56 56 56 57 51 51 51 45 42 46 48 49 52 52 52 51 50 50
65 63 56 50 50 52 55 54 55 59 56 54 52 51 52 54 53 51 51 51 50 50 48 52 52 52 51 50 44 43 45 47 49 53 51 50 49 49
58 59 57 57 56 57 57 56 59 57 55 53 51 52 53 52 49 48 47 45 43 43 48 47 48 49 43 49 49 43 44 48 50 50 49 48 48 47
58 59 58 58 57 57 57 57 56 54 52 52 52 52 52 51 48 46 44 43 42 41 39 42 47 48 48 48 44 42 43 48 48 48 47 44 45 45
60 60 59 58 57 56 55 55 54 53 52 52 53 53 52 50 46 42 43 42 41 40 39 39 39 42 41 44 47 42 47 49 47 47 46 43 43 44
60 60 59 57 56 55 54 53 53 54 54 52 52 52 49 44 40 41 41 40 39 39 39 39 39 43 39 35 39 50 52 46 47 43 43 42 42 44
59 58 57 55 54 53 54 53 53 53 53 53 50 46 41 40 41 40 39 38 39 39 38 39 39 39 42 42 45 48 48 48 43 43 43 43 44 46
57 56 55 54 54 53 54 53 52 51 48 45 41 39 40 41 40 39 37 39 39 39 38 37 39 42 45 47 45 43 44 46 47 45 43 42 41 41
55 55 55 54 52 53 51 50 47 44 43 42 41 39 39 40 37 36 37 36 38 37 37 37 41 43 48 46 46 46 42 42 45 46 46 45 43 41
54 54 53 51 51 50 48 47 45 44 43 42 41 40 41 38 38 38 36 36 36 35 36 35 37 41 43 44 45 43 43 40 39 39 40 45 45 45

GFSNE_sfc_dewp_027.txt.gz
Dewpoint
68 68 65 63 63 62 60 59 56 52 53 58 56 63 63 64 65 64 65 66 66 66 65 65 65 65 65 66 66 66 67 67 67 67 67 67 66 64
65 68 68 64 64 63 62 61 60 57 54 57 58 61 63 63 64 65 64 65 65 65 65 64 64 65 65 65 66 66 66 66 66 66 66 67 67 66
68 68 68 68 63 62 63 62 61 59 56 57 60 63 65 64 62 64 63 64 61 64 64 64 63 64 65 64 64 64 64 65 65 65 65 65 66 66
68 68 67 65 67 67 63 66 63 63 59 63 62 61 64 65 66 66 63 59 61 63 64 63 63 63 62 62 62 61 61 61 61 61 62 62 63 64
69 68 67 67 66 63 64 62 61 63 63 60 59 61 62 62 63 65 65 64 62 63 62 61 61 61 61 60 59 57 56 56 56 57 58 59 60 61
70 68 68 67 67 67 65 66 65 63 64 61 60 60 61 63 63 60 59 61 60 59 61 61 62 62 61 58 58 58 57 56 55 56 56 56 57 58
70 69 68 68 66 66 64 66 67 64 62 61 61 61 60 61 61 61 58 59 61 62 61 59 59 58 58 59 58 59 58 57 56 55 55 55 55 55
71 70 70 68 66 63 63 64 67 67 66 61 61 61 64 63 63 59 58 58 55 63 62 58 61 59 59 59 60 59 58 57 57 56 56 54 54 54
72 71 69 67 66 66 64 62 63 63 64 67 65 65 65 65 64 64 63 60 59 62 62 57 58 57 56 53 58 58 57 57 56 56 56 54 53 52
72 71 71 70 69 68 68 66 66 65 65 63 66 67 66 66 65 65 65 64 63 61 63 56 54 53 53 51 56 57 57 56 56 55 54 53 51 50
72 72 71 70 65 62 68 67 66 66 63 61 62 61 60 61 62 62 61 59 55 54 58 54 51 51 50 49 48 56 53 52 51 51 51 52 50 50
72 72 63 68 60 59 68 68 67 66 67 65 65 62 62 62 60 65 59 54 50 50 55 49 47 47 43 42 46 43 41 47 50 50 51 51 50 50
70 68 69 59 56 55 59 69 67 67 65 65 64 63 62 61 57 59 59 54 50 49 52 52 46 45 42 41 41 41 40 41 42 44 49 50 49 50
69 68 69 56 54 53 58 59 56 61 63 62 60 59 58 53 53 56 59 57 54 56 56 58 46 42 40 38 36 36 38 41 43 43 44 48 50 50
69 67 59 53 53 55 55 55 56 63 61 59 58 57 54 52 56 57 56 57 57 55 50 55 49 47 43 38 36 37 38 37 40 44 47 48 47 46
61 60 59 59 58 59 58 58 63 63 61 59 58 55 54 54 53 51 50 49 47 45 51 52 53 51 39 37 39 39 37 35 41 46 47 47 43 41
60 61 62 61 60 61 62 62 63 61 59 58 56 53 52 53 52 52 50 48 44 43 40 39 49 52 46 49 39 36 36 40 44 45 47 42 41 41
62 62 63 61 61 61 60 60 60 59 59 57 55 53 52 53 52 50 48 44 43 40 38 37 38 38 38 44 49 37 37 39 42 44 44 40 38 40
63 63 63 61 61 60 59 58 58 58 59 55 54 54 54 53 50 47 44 43 39 38 37 38 39 38 35 32 36 49 43 41 41 39 38 38 38 39
64 63 62 61 60 59 58 57 56 56 55 54 55 54 53 50 46 43 42 39 38 37 36 38 39 38 36 35 37 41 47 47 41 39 37 38 38 44
63 62 62 61 59 58 56 56 56 55 55 54 53 51 48 45 44 41 38 39 39 37 36 36 37 41 41 46 39 35 40 47 46 42 41 38 38 40
63 62 61 60 58 56 56 56 55 53 53 51 48 46 45 43 39 38 36 35 36 35 35 36 40 41 41 38 35 40 37 38 41 46 48 46 39 41
63 61 60 58 57 57 56 54 50 48 48 46 45 45 43 39 39 37 34 34 33 33 35 35 34 37 37 38 40 36 39 37 33 32 34 44 45 45

GFSNE_sfc_dewp_030.txt.gz
Dewpoint
69 69 64 59 61 59 59 57 55 52 52 59 54 60 59 60 64 64 64 69 68 67 66 65 66 66 66 66 66 67 67 68 68 68 68 67 66 66
66 68 69 60 62 61 59 58 57 55 53 56 56 59 61 59 63 64 63 66 67 66 66 65 65 65 65 65 66 66 66 66 66 66 67 67 66 66
70 68 69 69 60 59 60 59 59 58 55 55 58 62 66 66 62 62 62 62 59 66 65 65 64 64 65 64 64 64 64 64 64 64 64 64 64 65
72 71 68 65 69 67 60 68 63 63 57 63 62 60 66 67 66 67 62 57 58 64 65 64 64 64 63 63 63 62 62 61 60 61 61 61 62 62
72 72 70 68 68 64 65 62 61 62 62 58 57 60 60 62 64 66 65 66 60 64 61 63 63 63 62 61 60 59 57 56 57 58 59 59 60 60
73 72 71 69 68 68 65 66 64 61 63 59 57 57 60 63 61 58 60 62 59 58 61 60 63 63 63 61 60 59 57 55 55 56 56 57 58 58
73 73 72 70 67 67 65 67 70 65 57 58 59 57 58 58 61 59 59 61 61 61 60 59 59 60 60 61 60 62 59 58 57 56 56 55 55 56
74 73 73 70 68 64 64 64 67 68 68 58 58 59 66 63 62 60 59 57 55 61 62 59 59 58 57 56 60 59 59 58 57 57 56 55 55 55
75 74 72 70 70 70 65 63 64 64 65 69 66 66 66 69 69 65 65 62 60 59 64 59 56 55 55 52 59 58 58 57 57 57 56 55 55 54
75 75 75 74 72 71 70 67 66 66 67 64 67 66 70 68 68 66 67 66 64 61 65 58 55 51 52 52 58 57 57 56 56 55 55 54 52 51
75 74 75 75 68 63 71 70 70 68 63 61 62 62 63 61 63 63 61 64 61 57 61 55 51 50 50 49 49 56 51 51 50 51 52 52 50 50
75 76 65 72 62 60 70 70 70 69 70 67 65 64 63 63 61 65 61 58 54 50 56 52 46 46 46 46 45 44 43 50 49 49 49 50 50 47
68 70 71 62 57 57 62 71 70 70 68 68 65 65 65 64 62 63 64 55 50 48 55 53 47 46 44 42 40 40 40 39 40 42 47 48 49 49
70 68 71 58 55 55 59 63 59 62 72 66 64 63 62 61 60 59 60 58 55 57 57 60 48 46 44 40 36 37 37 39 40 40 41 45 49 50
68 67 61 54 54 55 58 58 59 67 65 63 62 62 60 59 60 59 61 61 60 59 54 57 50 50 41 37 36 37 37 38 38 38 40 44 45 46
63 65 61 60 60 61 60 62 68 65 64 63 61 62 59 56 55 54 52 52 50 49 57 55 54 52 41 38 37 36 37 36 37 40 44 45 44 43
61 63 63 63 63 63 65 66 67 65 64 63 62 59 56 55 53 52 52 51 50 46 44 48 54 54 46 49 39 39 39 37 37 42 46 41 41 41
63 64 64 63 62 63 65 64 65 64 63 62 60 58 55 53 52 53 52 51 48 45 43 41 39 37 38 46 50 39 38 38 39 44 46 38 36 37
66 65 63 63 63 63 64 66 64 62 64 60 58 56 53 53 53 53 51 48 45 43 41 39 37 38 36 34 37 50 39 39 41 40 38 37 37 37
66 64 64 64 65 64 64 65 62 60 60 59 56 54 53 53 53 51 48 46 43 40 38 37 38 39 39 36 36 37 46 45 40 39 38 37 37 44
67 66 65 65 65 63 62 61 61 59 58 56 54 54 53 52 50 46 44 42 41 38 37 37 39 46 39 39 41 40 39 46 46 43 40 34 34 36
66 65 66 66 63 62 61 60 59 57 56 55 53 52 50 48 45 44 41 37 37 35 35 36 40 40 40 39 38 40 38 39 44 48 48 44 34 33
66 65 64 64 64 62 60 57 55 54 54 53 50 49 48 45 44 41 37 35 34 34 35 35 35 37 38 37 39 37 42 39 34 33 32 48 48 48

GFSNE_sfc_dewp_033.txt.gz
Dewpoint
73 72 67 59 60 59 58 57 56 54 55 62 56 64 59 60 64 62 63 67 68 67 66 66 66 66 66 67 67 67 67 67 68 68 68 67 67 67
67 73 72 61 61 60 58 58 57 55 54 56 58 60 62 58 65 63 62 68 68 68 67 66 66 66 66 66 66 66 66 66 66 66 67 67 66 66
73 73 73 73 60 58 59 59 58 58 55 55 57 66 68 66 64 65 63 66 61 65 66 66 66 65 65 65 65 65 64 64 63 63 63 64 64 64
73 73 71 66 73 72 61 71 64 66 58 69 65 62 68 70 70 71 64 58 61 65 66 66 65 64 64 64 64 63 62 62 61 60 60 61 61 62
75 75 73 72 72 66 67 63 61 63 64 60 59 60 61 64 67 70 70 69 62 65 64 63 63 63 63 62 61 60 59 58 57 58 58 59 60 60
75 75 75 73 72 72 70 70 68 64 64 61 59 57 59 66 63 61 61 64 62 58 62 60 64 63 62 61 61 60 57 56 55 56 57 57 58 58
76 76 75 74 70 70 68 70 70 65 58 58 59 59 57 60 64 62 62 60 63 60 61 61 65 61 62 62 62 62 60 59 57 57 56 55 55 56
76 76 76 72 70 66 65 66 70 71 70 62 61 62 70 66 62 60 61 59 59 68 62 61 65 64 60 59 62 63 61 58 57 57 57 56 56 56
77 76 75 70 72 72 66 64 64 64 66 72 70 68 71 70 71 68 68 66 62 64 66 60 60 58 56 54 61 61 59 58 57 57 57 56 55 54
76 76 76 74 75 73 73 70 69 69 69 66 70 71 71 71 69 70 70 69 68 64 69 59 59 56 53 53 61 59 56 54 55 55 55 54 52 51
75 76 76 76 70 65 74 73 71 70 64 63 64 63 64 63 65 66 63 65 63 60 65 59 55 51 51 51 53 58 56 53 52 52 53 53 51 50
75 76 67 73 65 61 73 73 72 71 70 68 66 64 65 64 62 68 63 61 61 59 64 56 53 49 46 49 49 50 49 51 50 49 49 49 49 47
71 72 73 63 61 58 64 73 72 72 69 70 69 69 68 68 64 64 67 62 60 57 58 56 52 48 46 46 46 47 45 45 44 46 47 46 48 48
71 70 71 60 58 56 61 64 60 66 71 70 70 68 66 64 64 64 67 66 63 61 61 61 52 48 47 45 42 43 44 46 46 46 47 46 48 48
71 67 63 55 55 56 60 59 60 71 70 68 67 66 65 64 67 67 67 67 66 62 57 61 55 57 49 44 39 38 39 40 45 46 46 47 48 50
64 68 62 61 62 64 62 63 69 70 69 68 68 69 66 64 62 60 57 59 56 54 62 63 62 59 47 43 41 40 40 39 43 45 47 47 48 47
68 68 67 67 65 64 65 65 67 69 69 68 67 68 67 61 60 59 57 57 54 52 51 55 61 60 51 55 42 42 43 42 41 47 49 44 45 45
69 68 66 66 65 64 65 65 67 67 69 68 66 67 65 59 58 59 56 55 53 52 49 47 52 48 45 53 52 42 42 41 42 47 49 43 41 44
69 67 66 66 65 65 66 66 65 68 67 68 66 65 63 59 57 56 55 54 52 50 48 46 44 41 38 35 42 50 43 41 41 42 43 41 41 42
68 66 66 66 66 66 66 66 66 67 66 66 65 64 61 58 56 55 55 53 50 48 45 43 42 41 40 39 39 41 46 47 43 43 41 42 42 45
68 66 67 66 66 67 67 66 68 67 64 63 62 61 58 56 55 55 52 47 47 46 43 41 42 48 45 44 36 38 44 45 48 46 45 38 37 36
67 67 67 66 66 66 66 66 65 62 62 62 60 58 57 55 54 52 48 45 44 42 40 39 50 44 42 39 38 44 40 42 46 47 48 45 36 30
65 67 66 66 66 65 65 63 62 61 61 60 57 57 57 53 53 48 44 43 40 39 38 36 37 39 39 39 40 38 44 45 37 37 38 49 50 46

GFSNE_sfc_dewp_036.txt.gz
Dewpoint
74 74 72 70 69 68 68 67 65 62 63 67 64 66 68 68 67 65 66 65 66 66 65 65 65 66 66 66 67 67 67 67 68 67 67 67 66 66
73 73 73 69 68 69 68 68 67 65 62 66 66 66 65 66 68 68 67 68 66 67 66 66 66 66 66 66 66 66 66 66 65 65 66 66 66 65
73 73 72 72 71 69 68 68 68 67 64 64 68 71 69 67 66 68 68 68 67 66 66 66 66 65 65 65 65 65 65 64 63 63 62 62 63 63
73 72 72 70 72 72 72 68 67 69 67 66 67 69 69 69 70 70 66 61 66 66 66 65 65 64 64 64 64 64 62 62 61 60 59 60 60 61
75 73 72 72 71 68 70 69 68 69 69 66 66 68 70 70 69 69 70 69 67 66 63 63 64 63 62 62 61 60 59 59 58 57 58 58 59 60
75 75 74 72 71 71 69 69 69 68 67 67 66 65 68 69 68 66 67 68 67 63 62 62 62 63 62 61 60 60 58 57 56 55 57 57 58 58
74 75 75 74 70 70 69 70 68 68 67 64 63 65 65 66 65 67 65 64 67 67 65 61 62 63 61 62 62 63 61 59 57 56 56 55 55 56
75 75 75 72 71 67 67 67 69 67 65 62 63 63 65 66 69 66 65 64 62 67 65 64 66 66 64 65 64 64 62 60 58 57 56 56 56 56
75 75 74 73 72 72 66 65 66 66 66 67 66 68 69 69 69 68 67 67 65 67 66 64 66 63 66 59 61 61 62 59 57 56 55 55 55 54
75 75 75 74 74 73 71 68 68 68 67 67 69 68 71 71 70 70 69 68 68 68 68 62 64 64 61 59 60 60 59 59 57 55 53 52 51 50
74 75 75 75 70 65 73 70 68 68 64 63 64 66 64 65 69 69 68 66 64 64 66 64 63 61 58 60 58 58 56 55 54 53 53 52 51 50
73 74 67 72 66 61 72 72 70 69 69 67 65 63 64 64 64 69 67 64 63 62 66 63 62 58 54 57 59 54 54 54 51 50 50 50 50 50
70 71 72 63 61 59 63 72 71 71 68 68 67 67 68 68 67 68 68 66 63 62 63 63 59 57 55 53 55 56 55 54 52 51 48 47 48 49
71 71 71 61 58 57 60 65 62 65 71 69 67 67 66 67 68 68 67 67 67 64 59 62 57 55 53 52 51 53 52 52 51 51 52 50 47 48
73 70 59 55 56 58 59 61 61 70 71 70 68 67 67 68 68 68 67 67 66 64 63 62 58 57 55 53 51 49 47 49 52 51 50 52 51 51
67 69 68 63 60 64 63 63 71 72 72 70 69 69 69 68 67 67 66 64 62 61 62 62 61 58 54 53 51 49 50 47 50 52 52 50 50 50
69 72 72 71 72 68 67 68 71 72 71 70 69 68 67 66 66 65 64 62 59 56 57 60 62 59 57 53 50 49 49 51 52 52 50 48 49 50
67 71 72 71 69 69 68 69 70 69 70 69 68 67 66 65 63 63 63 59 57 55 56 57 57 57 55 55 55 49 52 52 51 50 50 48 45 47
70 70 71 71 69 69 68 68 68 69 69 68 67 66 65 65 62 61 58 57 56 56 57 57 55 53 50 46 50 51 51 49 48 49 50 47 45 45
69 69 69 70 69 68 67 68 68 68 68 67 66 65 65 62 61 60 57 56 55 57 55 55 53 51 47 46 48 50 49 49 50 50 47 47 47 48
66 68 70 70 69 68 68 68 67 67 67 66 66 65 64 62 60 59 57 53 54 55 53 53 52 53 53 51 46 44 47 47 51 49 48 46 43 41
62 64 64 66 68 68 68 67 66 66 66 66 65 64 63 62 59 56 54 52 53 52 52 52 51 51 51 48 45 46 49 51 48 48 50 48 42 36
67 66 66 66 66 66 67 67 66 65 65 65 64 62 62 59 56 55 54 52 48 49 50 49 49 51 48 47 46 46 46 46 48 49 48 50 50 49

GFSNE_sfc_dewp_042.txt.gz
Dewpoint
69 70 67 64 65 64 60 60 56 56 56 59 58 62 62 64 62 64 60 65 65 64 64 64 64 65 66 66 65 65 66 66 66 66 65 63 62 62
71 69 69 68 65 64 64 60 60 56 54 58 61 60 62 63 66 62 59 64 65 64 63 63 63 64 64 65 65 66 66 65 65 64 63 62 61 60
72 70 69 68 67 64 63 63 60 58 55 55 61 60 62 63 63 63 61 59 60 64 63 63 62 63 64 64 65 65 65 64 64 63 62 60 60 60
72 71 70 69 68 66 64 64 61 60 57 54 57 64 62 63 62 64 62 61 62 63 63 63 62 62 63 63 63 63 63 63 63 62 60 59 59 60
73 72 71 70 69 67 65 65 65 61 62 58 57 63 63 63 62 63 63 63 64 65 64 63 62 62 62 62 61 60 60 59 59 59 59 58 58 59
73 73 71 70 69 68 66 65 64 64 63 63 60 62 63 65 63 61 62 64 62 64 65 64 64 64 63 61 60 60 58 57 56 56 55 55 57 58
72 73 73 71 69 68 67 65 64 63 63 62 61 60 60 63 63 62 61 61 64 64 63 61 61 62 62 62 62 62 59 57 56 55 54 53 54 55
72 72 72 71 69 66 66 65 65 64 62 61 61 59 60 59 64 63 62 61 60 64 64 62 60 59 59 60 61 61 60 59 57 56 54 53 54 54
72 72 72 72 71 72 66 65 64 64 63 61 60 59 59 59 60 63 63 62 60 63 64 62 62 60 60 60 60 60 59 58 58 56 55 54 53 51
72 72 72 72 71 72 73 70 68 67 65 64 62 61 60 60 60 60 62 63 63 64 64 60 62 61 61 61 60 61 59 58 57 55 54 52 50 49
72 72 73 72 69 64 72 72 71 70 66 62 63 61 59 59 61 63 64 63 62 63 64 63 62 62 60 58 57 60 58 57 55 54 54 52 49 48
72 73 66 70 65 62 69 71 71 71 71 70 66 63 61 60 62 64 64 64 63 62 65 63 62 62 57 54 55 58 58 55 53 52 52 51 49 46
72 72 72 63 60 59 61 72 71 71 70 70 69 68 67 67 65 67 67 64 64 63 65 65 63 60 54 51 54 54 54 51 52 51 50 49 48 47
73 73 72 61 58 57 60 64 62 63 71 72 70 69 69 67 67 68 68 68 67 66 66 66 62 60 56 51 48 51 52 51 50 49 48 47 47 48
74 71 64 60 57 58 58 60 60 69 71 72 71 71 69 70 69 68 69 69 68 67 66 65 62 59 61 53 47 47 44 45 47 45 46 46 44 46
66 70 68 64 61 65 65 62 63 68 70 71 71 72 73 71 68 68 67 67 66 65 65 64 63 59 55 51 49 46 43 40 44 45 46 44 46 44
66 69 70 71 72 72 72 71 70 67 67 70 71 72 72 72 68 68 67 66 65 64 61 62 61 60 58 54 52 48 45 42 41 46 43 42 43 45
64 66 68 69 69 71 71 72 73 70 70 69 70 71 71 71 68 67 66 66 64 64 62 60 58 56 54 52 52 46 44 41 44 47 41 40 43 43
64 64 66 68 69 70 71 71 72 73 73 70 71 71 71 71 68 66 65 65 64 62 61 60 58 56 51 47 49 49 44 45 46 45 43 42 41 41
60 60 60 60 61 62 63 63 64 66 67 68 69 69 70 69 69 67 65 64 63 62 61 60 58 56 51 49 46 47 46 44 43 42 44 43 44 49
59 58 59 60 63 64 64 64 64 64 64 65 65 66 67 68 67 67 66 59 59 60 58 58 59 56 51 47 41 41 48 47 43 40 43 42 39 38
57 59 60 63 62 64 64 64 65 64 64 65 65 66 66 64 62 62 61 61 61 60 59 59 58 53 46 45 42 39 40 45 47 49 48 45 40 37
59 60 61 61 62 62 62 63 63 64 64 63 63 63 63 62 62 61 61 61 60 58 55 54 55 51 45 44 42 40 39 43 43 43 45 49 48 47

GFSNE_sfc_dewp_045.txt.gz
Dewpoint
69 68 65 64 65 63 59 59 55 54 55 58 58 61 62 64 65 64 64 64 66 65 64 64 65 65 66 66 66 66 66 66 66 66 65 62 60 59
70 68 68 67 64 64 64 60 59 56 54 57 59 59 62 62 65 64 63 64 65 65 64 63 64 64 65 65 65 65 65 66 65 65 64 62 61 58
71 70 68 67 67 65 63 63 60 58 55 55 59 60 61 62 63 65 63 61 60 64 64 63 62 63 64 64 64 64 65 65 64 65 63 61 59 60
71 71 71 70 67 66 64 62 62 60 57 55 55 60 60 62 62 64 64 61 59 61 64 63 62 62 62 62 62 63 63 63 64 63 62 61 59 59
72 71 71 70 69 68 66 64 63 62 60 57 56 59 62 62 62 63 62 62 61 63 62 62 62 62 61 60 60 60 60 60 60 60 60 60 59 59
73 73 72 71 71 70 68 66 64 63 62 61 60 59 61 62 62 61 61 62 61 62 64 63 63 63 62 61 60 61 58 57 57 57 57 57 58 58
72 72 72 72 70 70 70 68 66 64 63 62 61 60 60 62 62 61 59 58 61 62 62 63 63 63 63 63 64 63 60 58 57 56 55 54 54 56
71 72 72 71 70 67 67 67 67 66 64 63 62 60 59 60 62 60 60 59 58 63 62 61 62 61 61 62 62 61 60 59 57 56 55 53 53 54
71 71 71 72 70 72 68 66 65 64 66 67 64 64 62 60 60 62 60 60 58 61 62 60 62 61 61 60 60 60 59 59 57 56 55 54 53 52
71 71 71 71 71 71 71 71 69 69 67 66 67 67 66 63 60 60 60 61 62 62 64 58 62 61 61 61 61 61 59 58 58 56 55 53 51 49
72 72 72 71 68 64 71 71 71 71 67 63 63 63 62 61 61 61 61 61 61 62 64 61 62 62 61 62 64 62 59 57 57 56 55 53 49 48
72 72 66 70 64 62 69 71 70 71 71 71 70 65 63 64 60 61 63 62 60 61 64 63 63 61 60 60 62 62 61 56 55 54 53 52 49 46
71 71 72 63 60 60 61 72 71 71 71 71 71 71 71 69 68 64 63 66 65 62 65 65 64 62 61 57 60 60 60 59 56 53 51 50 48 46
72 72 72 62 58 58 60 63 62 63 71 72 72 72 72 71 70 70 68 67 68 67 68 66 64 63 60 57 58 57 59 55 54 52 52 49 48 48
73 70 64 59 57 58 57 58 58 67 70 71 71 72 72 72 72 71 69 68 68 68 68 66 66 64 64 60 56 55 56 52 50 50 49 48 47 46
66 70 67 64 62 65 65 64 64 66 68 70 71 71 72 73 73 73 70 68 67 68 68 67 67 65 63 63 61 54 53 51 50 48 46 46 45 45
68 69 70 70 71 71 71 71 71 69 67 68 69 70 71 71 72 73 71 70 68 67 67 66 66 65 65 62 57 54 51 44 50 47 44 44 44 44
66 68 68 68 68 68 68 69 70 69 71 70 70 70 70 70 70 70 71 70 67 67 67 64 63 58 56 57 59 55 51 46 46 45 43 42 43 44
66 66 66 64 62 61 61 61 62 63 64 64 64 64 65 66 66 67 69 68 67 67 67 63 60 61 56 53 53 55 52 48 45 44 42 41 42 43
61 59 58 58 58 61 62 62 62 63 63 63 64 64 64 64 64 65 65 66 66 66 64 60 60 59 58 52 51 53 50 48 42 44 43 43 46 48
58 57 57 60 62 62 62 63 63 63 63 63 63 63 64 65 65 64 62 53 58 60 57 58 58 57 55 54 51 51 48 47 45 44 44 42 41 40
57 57 58 59 59 60 62 62 62 62 64 64 63 63 64 63 62 61 60 59 60 60 59 58 56 56 55 54 48 48 46 46 48 49 47 45 40 38
58 59 59 61 62 62 63 62 62 63 64 64 63 62 62 60 60 61 61 61 59 57 57 56 55 54 50 51 43 41 45 46 44 43 43 50 49 49

GFSNE_sfc_dewp_048.txt.gz
Dewpoint
71 71 67 67 66 65 63 63 62 59 60 63 63 65 65 67 69 68 68 67 66 66 64 64 65 66 67 67 67 67 66 66 66 66 65 63 60 58
71 71 70 69 67 67 65 63 62 62 60 61 63 64 65 63 66 68 67 67 65 65 64 63 64 65 65 66 66 65 65 65 66 65 65 63 61 58
72 72 71 70 69 68 66 65 63 61 60 62 61 64 66 66 66 67 67 67 66 64 64 64 63 63 64 64 64 64 65 65 65 65 65 63 61 60
72 72 72 71 70 70 68 67 65 65 63 63 64 63 65 66 67 67 66 64 65 63 63 63 63 62 62 62 62 62 62 63 64 64 64 63 61 60
73 72 72 72 72 71 70 68 66 65 64 62 62 62 64 65 65 66 66 67 65 64 62 62 62 62 61 60 60 59 59 60 61 61 61 62 61 60
73 73 73 73 72 72 71 71 70 67 66 64 63 63 63 65 65 64 63 64 64 63 63 62 63 63 62 60 60 60 57 57 58 58 58 58 59 59
73 73 73 73 70 71 72 72 71 69 69 67 66 65 63 64 63 64 63 64 65 65 64 64 64 64 65 63 64 63 60 58 57 56 56 56 56 56
72 73 73 71 71 67 67 68 70 70 69 67 67 66 67 66 65 63 63 62 61 65 64 63 64 63 64 65 64 63 61 59 58 56 56 55 54 54
73 72 72 72 71 73 68 66 67 65 67 71 69 69 68 69 68 66 65 64 63 65 65 61 64 63 64 62 62 61 60 59 58 58 56 55 54 53
73 73 73 72 73 72 73 73 72 71 70 68 70 71 72 72 71 69 67 67 66 65 67 61 63 63 64 64 61 61 60 58 58 57 56 55 52 51
73 73 73 73 68 64 72 72 72 72 68 64 65 64 63 62 65 69 65 62 62 63 67 63 64 66 67 67 67 60 59 57 57 57 57 55 51 50
73 73 66 70 64 61 71 72 72 72 73 73 72 67 65 67 62 65 68 67 65 64 67 64 64 64 62 66 66 64 62 56 56 56 56 55 51 50
71 72 72 63 60 59 60 72 72 72 71 72 72 72 73 72 71 70 68 68 68 67 68 67 66 66 65 62 62 64 63 61 62 59 54 52 49 48
72 72 73 62 58 58 59 62 60 62 71 72 72 72 72 73 73 73 73 70 70 70 72 68 67 66 64 63 61 62 64 64 63 61 60 54 49 47
72 70 64 59 57 58 57 58 58 66 68 69 70 71 72 72 73 74 74 73 72 70 69 70 68 67 66 63 62 61 61 60 62 61 59 54 51 50
65 69 67 65 63 66 67 65 65 67 68 69 70 71 72 72 72 73 72 72 72 71 70 69 69 68 67 65 64 61 62 59 60 60 57 56 52 50
69 71 70 71 71 72 72 72 72 71 69 69 69 69 69 69 69 70 70 70 68 69 68 70 70 69 68 67 64 62 61 56 59 55 55 53 49 49
68 70 70 70 69 69 68 67 67 65 66 65 64 65 64 65 65 65 65 66 65 65 67 69 67 65 65 58 58 60 57 54 56 55 56 52 49 48
70 68 67 66 64 63 64 65 64 65 66 64 64 64 64 64 64 64 65 65 65 65 66 67 67 66 60 51 54 56 53 52 53 53 52 51 51 47
63 63 62 62 63 63 64 64 64 64 64 64 65 65 63 63 64 65 65 63 61 62 61 60 61 58 55 55 53 52 51 52 53 50 48 48 47 49
61 61 63 63 63 63 64 64 64 63 63 64 64 63 63 63 63 63 62 56 57 59 58 57 55 55 56 57 53 51 51 50 52 49 47 45 43 44
62 62 63 63 63 62 63 64 64 63 64 64 64 65 65 64 63 62 63 62 60 59 56 56 58 59 58 56 53 50 47 49 50 49 50 49 44 42
61 62 62 62 63 64 64 64 64 63 64 64 64 64 64 63 63 63 61 62 61 58 57 56 56 55 55 52 51 47 46 45 46 46 47 49 49 49